Weather History for Francistown, Botswana

Change the Weather History Date:

Sunday, September 9, 2012

  Actual Average Record
Temperature  
Mean Temperature 68 °F -  
Max Temperature 84 °F 84 °F 98 °F (2008)
Min Temperature 51 °F 56 °F 41 °F (2011)
Cooling Degree Days 2    
Growing Degree Days 18 (Base 50)    
Moisture  
Dew Point 43 °F    
Average Humidity 48    
Maximum Humidity 94    
Minimum Humidity 14    
Precipitation  
Precipitation 0.00 in - - ()
Sea Level Pressure  
Sea Level Pressure 30.08 in    
Wind  
Wind Speed 5 mph ()    
Max Wind Speed 10 mph    
Max Gust Speed -    
Visibility 6.0 miles    
Events      
Averages and records for this station are not official NWS values.
T = Trace of Precipitation, MM = Missing Value Source: Averaged Metar Reports

Daily Weather History Graph

Daily Weather History Graph

Search for Another Location

Airport:

Trip Planner

Search our weather history database for the weather conditions in past years. The results will help you decide how hot, cold, wet, or windy it might be!

Date:

Astronomy

Sep. 09, 2012 Rise Set
Actual Time 6:11 AM CAT 6:03 PM CAT
Civil Twilight 5:49 AM CAT 6:25 PM CAT
Nautical Twilight 5:23 AM CAT 6:51 PM CAT
Astronomical Twilight 4:58 AM CAT 7:16 PM CAT
Moon 12:53 AM CAT (9/9) 12:05 PM CAT (9/9)
Length of Visible Light 12h 35m
Length of Day
11h 51m
Last Quarter, 42% of the Moon is Illuminated
Sep 9
Last Quarter
Sep 16
New
Sep 22
First Quarter
Sep 30
Full
Oct 8
Last Quarter

Hourly Weather History & Observations

Time (CAT) Temp. Dew Point Humidity Pressure Visibility Wind Dir Wind Speed Gust Speed Precip Events Conditions
12:00 AM 62.6 °F 51.8 °F 68% 30.12 in - East 9.2 mph - N/A   Clear
1:00 AM 60.8 °F 51.8 °F 72% 30.12 in - East 6.9 mph - N/A   Clear
2:00 AM 60 °F 53 °F 70%  in 6 mi East 6.9 mph - -  
3:00 AM 57.2 °F 51.8 °F 82% 30.12 in - East 5.8 mph - N/A   Clear
4:00 AM 55.4 °F 51.8 °F 88% 30.12 in - East 4.6 mph - N/A   Clear
5:00 AM 53.6 °F 51.8 °F 94% 30.12 in - ESE 2.3 mph - N/A   Clear
6:00 AM 51.8 °F 50.0 °F 94% 30.12 in - SE 3.5 mph - N/A   Clear
7:00 AM 53.6 °F 51.8 °F 94% 30.12 in - SE 3.5 mph - N/A   Clear
8:00 AM 60 °F 54 °F 75%  in 6 mi East 8.1 mph - -  
8:00 AM 60.8 °F 53.6 °F 77% 30.15 in - East 8.1 mph - N/A   Clear
9:00 AM 68.0 °F 53.6 °F 60% 30.15 in - ENE 10.4 mph - N/A   Clear
10:00 AM 73.4 °F 50.0 °F 44% 30.15 in - ENE 10.4 mph - N/A   Clear
11:00 AM 75.2 °F 48.2 °F 38% 30.12 in - East 6.9 mph - N/A   Clear
12:00 PM 78.8 °F 35.6 °F 21% 30.09 in - South 4.6 mph - N/A   Clear
1:00 PM 80.6 °F 39.2 °F 23% 30.06 in - West 5.8 mph - N/A   Clear
2:00 PM 82.4 °F 37.4 °F 20% 30.04 in - West 4.6 mph - N/A   Clear
3:00 PM 82.4 °F 35.6 °F 19% 30.01 in - SSW 9.2 mph - N/A   Clear
4:00 PM 84.2 °F 35.6 °F 18% 29.98 in - SW 4.6 mph - N/A   Clear
5:00 PM 84.2 °F 33.8 °F 16% 30.01 in - West 3.5 mph - N/A   Clear
6:00 PM 78.8 °F 33.8 °F 20% 30.01 in - ESE 3.5 mph - N/A   Clear
7:00 PM 75.2 °F 35.6 °F 24% 30.01 in - SSE 4.6 mph - N/A   Clear
8:00 PM 74 °F 34 °F 14%  in 6 mi SSE 4.6 mph - -  
8:00 PM 73.4 °F 33.8 °F 23% 30.04 in - SSE 4.6 mph - N/A   Clear
9:00 PM 68.0 °F 33.8 °F 28% 30.06 in - ESE 5.8 mph - N/A   Clear
10:00 PM 62.6 °F 30.2 °F 30% 30.06 in - Variable 1.2 mph - N/A   Clear
11:00 PM 60.8 °F 30.2 °F 31% 30.06 in - North 3.5 mph - N/A   Clear